This demonstration page uses our WeatherBlox Daily Observations layout. Learn more.

Left ArrowRight Arrow

Hourly Observations for October 16, 2021

Temp ( °F °C ) Dew Point ( °F °C ) Humidity (%) Winds ( mph kmh ) Pressure ( in mb ) Visibility ( mi km ) Precip ( " mm )
12:15 am 00:15 Clear 70 21 66 19 88 88 N N/A 29.85 1011 10 16 N/A
12:35 am 00:35 Clear 68 20 66 19 94 94 SSE 3 6 29.85 1011 10 16 N/A
12:55 am 00:55 Clear 68 20 66 19 94 94 SSE 5 7 29.84 1011 10 16 N/A
1:15 am 01:15 Clear 68 20 66 19 94 94 S 6 9 29.84 1011 10 16 N/A
1:35 am 01:35 Clear 68 20 66 19 94 94 S 3 6 29.83 1010 10 16 N/A
1:55 am 01:55 Clear 66 19 64 18 94 94 N N/A 29.82 1010 10 16 N/A
2:15 am 02:15 Clear 68 20 66 19 94 94 S 5 7 29.81 1010 10 16 N/A
2:35 am 02:35 Clear 66 19 66 19 100 100 N N/A 29.81 1010 10 16 N/A
2:55 am 02:55 Clear 66 19 64 18 94 94 S 5 7 29.80 1009 10 16 N/A
3:15 am 03:15 Clear 66 19 64 18 94 94 S 6 9 29.79 1009 10 16 N/A
3:35 am 03:35 Clear 66 19 64 18 94 94 S 6 9 29.79 1009 10 16 N/A
3:55 am 03:55 Clear 66 19 64 18 94 94 S 5 7 29.79 1009 10 16 N/A
4:15 am 04:15 Clear 66 19 64 18 94 94 S 5 7 29.79 1009 10 16 N/A
4:35 am 04:35 Clear 66 19 64 18 94 94 SSE 7 11 29.77 1008 10 16 N/A
4:55 am 04:55 Clear 66 19 64 18 94 94 N N/A 29.77 1008 10 16 N/A
5:15 am 05:15 Clear 64 18 64 18 100 100 SW 3 6 29.77 1008 10 16 N/A
5:35 am 05:35 Clear 64 18 64 18 100 100 N N/A 29.76 1008 10 16 N/A
5:55 am 05:55 Clear 64 18 64 18 100 100 S 3 6 29.76 1008 10 16 N/A
6:15 am 06:15 Clear 64 18 64 18 100 100 S 6 9 29.76 1008 10 16 N/A
6:35 am 06:35 Clear 64 18 64 18 100 100 S 6 9 29.75 1008 10 16 N/A
6:55 am 06:55 Clear 64 18 64 18 100 100 S 8 13 29.74 1007 10 16 N/A
7:15 am 07:15 Partly Cloudy 64 18 64 18 100 100 S 10 17 29.73 1007 10 16 N/A
7:35 am 07:35 Partly Cloudy 64 18 64 18 100 100 S 9 15 29.73 1007 10 16 N/A
7:55 am 07:55 Mostly Cloudy 64 18 64 18 100 100 SSW 9 15 29.74 1007 10 16 N/A
8:15 am 08:15 Mostly Cloudy 64 18 64 18 100 100 SSW 8 13 29.75 1008 10 16 N/A
8:35 am 08:35 Mostly Cloudy 66 19 64 18 94 94 S 10 17 29.75 1008 10 16 N/A
8:55 am 08:55 Mostly Cloudy 68 20 64 18 88 88 S 13 20 29.73 1007 10 16 N/A
9:15 am 09:15 Partly Cloudy 70 21 66 19 88 88 SSW 14 22 29.73 1007 10 16 N/A
9:35 am 09:35 Partly Cloudy 70 21 66 19 88 88 S 14 22 29.73 1007 10 16 N/A
9:55 am 09:55 Sunny 72 22 66 19 83 83 S 10 17 29.72 1006 10 16 N/A
10:15 am 10:15 Sunny 72 22 66 19 83 83 S 10 17 29.72 1006 10 16 N/A
10:35 am 10:35 Sunny 73 23 66 19 78 78 S 13 20 29.71 1006 10 16 N/A
10:55 am 10:55 Sunny 73 23 66 19 78 78 S 12 19 29.71 1006 10 16 N/A
11:15 am 11:15 Sunny 72 22 66 19 83 83 S 13 20 29.70 1006 10 16 N/A
11:35 am 11:35 Sunny 73 23 66 19 78 78 SSW 13 20 29.70 1006 10 16 N/A
11:55 am 11:55 Partly Cloudy 77 25 68 20 74 74 SSW 14 22 29.69 1006 10 16 N/A
12:15 pm 12:15 Mostly Cloudy 75 24 68 20 78 78 WNW 10 17 29.72 1006 10 16 N/A
12:35 pm 12:35 Cloudy 73 23 66 19 78 78 W 7 11 29.71 1006 10 16 N/A
12:55 pm 12:55 Cloudy with Light Rain 70 21 64 18 83 83 NW 20 31 29.72 1006 10 16 N/A
1:15 pm 13:15 Cloudy with Light Rain 70 21 63 17 78 78 NW 9 15 29.70 1006 10 16 N/A
1:35 pm 13:35 Cloudy with Rain 70 21 63 17 78 78 WNW 8 13 29.71 1006 10 16 N/A
1:55 pm 13:55 Cloudy with Light Rain 64 18 63 17 94 94 W 9 15 29.72 1007 5 8 N/A
2:15 pm 14:15 Cloudy with Rain 63 17 63 17 100 100 W 9 15 29.74 1007 3 5 N/A
2:35 pm 14:35 Cloudy with Rain 63 17 63 17 100 100 WNW 6 9 29.74 1007 5 8 N/A
2:55 pm 14:55 Cloudy with Light Rain 63 17 63 17 100 100 N 3 6 29.72 1006 10 16 N/A
3:15 pm 15:15 Cloudy with Heavy Rain 63 17 63 17 100 100 WNW 9 15 29.76 1008 4 6 N/A
3:35 pm 15:35 Cloudy with Rain 63 17 63 17 100 100 N 8 13 29.74 1007 5 8 N/A
3:55 pm 15:55 Cloudy 63 17 63 17 100 100 NNW 3 6 29.75 1007 10 16 N/A
4:15 pm 16:15 Cloudy with Heavy Rain 63 17 63 17 100 100 NW 3 6 29.75 1007 4 6 N/A
4:35 pm 16:35 Cloudy with Light Rain 63 17 63 17 100 100 NW 5 7 29.77 1008 10 16 N/A
4:55 pm 16:55 Cloudy 64 18 63 17 94 94 NW 14 22 29.76 1008 10 16 N/A
5:15 pm 17:15 Cloudy 63 17 59 15 88 88 NW 14 22 29.78 1008 10 16 N/A
5:35 pm 17:35 Cloudy 63 17 57 14 83 83 WNW 14 22 29.80 1009 10 16 N/A
5:55 pm 17:55 Cloudy 63 17 55 13 77 77 NW 17 28 29.82 1010 10 16 N/A
6:15 pm 18:15 Cloudy 63 17 54 12 73 73 NNW 13 20 29.83 1010 10 16 N/A
6:35 pm 18:35 Mostly Cloudy 61 16 54 12 77 77 NW 15 24 29.85 1011 10 16 N/A
6:55 pm 18:55 Partly Cloudy 61 16 54 12 77 77 NNW 15 24 29.85 1011 10 16 N/A
7:15 pm 19:15 Clear 61 16 52 11 72 72 NNW 10 17 29.86 1011 10 16 N/A
7:35 pm 19:35 Clear 59 15 52 11 77 77 NW 7 11 29.87 1011 10 16 N/A
7:55 pm 19:55 Clear 59 15 52 11 77 77 NW 6 9 29.89 1012 10 16 N/A
8:15 pm 20:15 Clear 59 15 50 10 72 72 NNW 6 9 29.89 1012 10 16 N/A
8:35 pm 20:35 Clear 57 14 50 10 77 77 NW 10 17 29.89 1012 10 16 N/A
8:55 pm 20:55 Clear 55 13 48 9 77 77 NW 8 13 29.91 1013 10 16 N/A
9:15 pm 21:15 Clear 55 13 48 9 77 77 NW 9 15 29.91 1013 10 16 N/A
9:55 pm 21:55 Clear 54 12 48 9 82 82 NW 5 7 29.93 1014 10 16 N/A
10:15 pm 22:15 Clear 54 12 48 9 82 82 NNW 3 6 29.93 1014 10 16 N/A
10:35 pm 22:35 Clear 54 12 48 9 82 82 N N/A 29.93 1014 10 16 N/A
10:55 pm 22:55 Clear 52 11 48 9 88 88 N N/A 29.94 1014 10 16 N/A
11:15 pm 23:15 Clear 50 10 48 9 94 94 W 3 6 29.95 1014 10 16 N/A
11:35 pm 23:35 Clear 50 10 48 9 94 94 WNW 5 7 29.96 1014 10 16 N/A
11:55 pm 23:55 Clear 52 11 50 10 94 94 N N/A 29.95 1014 10 16 N/A

Powered by AerisWeather